FW0051 Weather Reports


Display with metric or nautical units.
time (UTC)temp
F
wind
direction
speed
MPH
gust
MPH
rain 1hr
in
rain 24hr
in
rain mn
in
humidity
%
barometer
mb
20260901081513 57 95 10.0 15.0 0.00 0.00 0.00 87 1026.1
20260901080014 58 89 8.0 12.0 0.00 0.00 0.00 86 1026.0
20260901074518 57 89 7.0 11.0 0.00 0.00 0.00 88 1025.9
20260901073019 58 91 7.0 12.0 0.00 0.00 0.00 90 1025.8
20260901071519 57 45 6.0 12.0 0.00 0.00 0.00 91 1025.7
20260901070018 57 68 8.0 12.0 0.00 0.00 0.00 93 1025.6
20260901064518 56 76 5.0 11.0 0.00 0.00 0.00 92 1025.7
20260901063018 56 71 6.0 10.0 0.00 0.00 0.00 92 1025.6
20260901061518 56 86 5.0 8.0 0.00 0.00 0.00 93 1025.6
20260901060018 56 96 7.0 8.0 0.00 0.00 0.00 91 1025.6
20260901054517 56 101 6.0 8.0 0.00 0.00 0.00 90 1025.5
20260901051517 56 98 8.0 10.0 0.00 0.00 0.00 87 1025.3
20260901050017 56 101 7.0 9.0 0.00 0.00 0.00 86 1025.1
20260901043018 57 85 5.0 8.0 0.00 0.00 0.00 84 1024.9
20260901033017 57 39 4.0 6.0 0.00 0.00 0.00 81 1024.4
20260901030017 57 36 1.0 5.0 0.00 0.00 0.00 81 1024.4
20260901024516 58 157 0.0 2.0 0.00 0.00 0.00 82 1024.6
20260901023016 58 134 2.0 6.0 0.00 0.00 0.00 82 1024.8
20260901021516 58 16 3.0 4.0 0.00 0.00 0.00 80 1024.4
20260901020016 57 8 5.0 7.0 0.00 0.00 0.00 84 1024.6
20260901014516 58 34 1.0 3.0 0.00 0.00 0.00 79 1024.3
20260901013016 58 77 2.0 4.0 0.00 0.00 0.00 84 1024.7
20260901011515 58 92 4.0 7.0 0.00 0.00 0.00 84 1024.7
20260901010016 58 166 0.0 4.0 0.00 0.00 0.00 78 1024.5
20260901004515 58 165 1.0 3.0 0.00 0.00 0.00 80 1024.6
20260901003016 58 186 1.0 4.0 0.00 0.00 0.00 83 1024.8
20260901001514 58 186 2.0 4.0 0.00 0.00 0.00 83 1024.9
20260831234514 59 176 3.0 6.0 0.00 0.00 0.00 76 1024.5
20260831233015 60 226 3.0 5.0 0.00 0.00 0.00 69 1024.4
20260831231515 60 238 2.0 8.0 0.00 0.00 0.00 68 1024.3
20260831224514 60 226 18.0 22.0 0.00 0.00 0.00 67 1023.9
20260831223014 60 222 22.0 27.0 0.00 0.00 0.00 69 1023.7
20260831221514 60 217 22.0 27.0 0.00 0.00 0.00 69 1023.8
20260831220016 60 212 21.0 25.0 0.00 0.00 0.00 68 1023.8
20260831214514 60 218 20.0 24.0 0.00 0.00 0.00 68 1023.8
20260831211513 59 215 21.0 26.0 0.00 0.00 0.00 72 1023.5
20260831210014 60 207 22.0 31.0 0.00 0.00 0.00 69 1023.4
20260831204514 59 204 20.0 26.0 0.00 0.00 0.00 73 1023.1
20260831203013 59 205 18.0 24.0 0.00 0.00 0.00 77 1023.3
20260831201513 58 205 17.0 23.0 0.00 0.00 0.00 84 1023.2
20260831194519 58 202 18.0 25.0 0.00 0.00 0.00 89 1023.0
20260831193019 58 201 17.0 22.0 0.00 0.00 0.00 91 1022.9
20260831191518 58 199 16.0 21.0 0.00 0.00 0.00 92 1022.8
20260831190019 58 199 16.0 21.0 0.00 0.00 0.00 91 1022.8
20260831184519 58 200 15.0 20.0 0.00 0.00 0.00 90 1022.7
20260831183018 58 200 15.0 20.0 0.00 0.00 0.00 88 1022.6
20260831181518 58 199 12.0 15.0 0.00 0.00 0.00 86 1022.6
20260831180019 59 205 13.0 21.0 0.00 0.00 0.00 82 1022.6
20260831173017 60 196 9.0 12.0 0.00 0.00 0.00 81 1022.6
20260831171518 61 193 10.0 13.0 0.00 0.00 0.00 81 1022.7
20260831170017 61 192 11.0 15.0 0.00 0.00 0.00 81 1022.7
20260831164518 61 190 11.0 15.0 0.00 0.00 0.00 79 1022.9
20260831163017 62 195 11.0 16.0 0.00 0.00 0.00 79 1023.1
20260831161517 62 195 11.0 15.0 0.00 0.00 0.00 78 1023.0
20260831160017 62 194 13.0 21.0 0.00 0.00 0.00 75 1023.1
20260831153016 63 196 12.0 19.0 0.00 0.00 0.00 76 1023.1
20260831151517 63 193 10.0 15.0 0.00 0.00 0.00 81 1023.6
20260831150020 63 203 13.0 19.0 0.00 0.00 0.00 69 1023.4
20260831144516 63 195 11.0 16.0 0.00 0.00 0.00 76 1023.2
20260831143016 62 184 11.0 20.0 0.00 0.00 0.00 80 1023.7
20260831141516 63 204 12.0 18.0 0.00 0.00 0.00 79 1023.5
20260831140016 62 186 13.0 20.0 0.00 0.00 0.00 73 1023.3
20260831134515 63 186 12.0 19.0 0.00 0.00 0.00 75 1023.2
20260831133016 62 183 12.0 21.0 0.00 0.00 0.00 77 1023.3
20260831131515 62 187 11.0 18.0 0.00 0.00 0.00 80 1023.5
20260831130016 62 179 10.0 17.0 0.00 0.00 0.00 82 1023.8
20260831124515 62 202 12.0 19.0 0.00 0.00 0.00 81 1023.8
20260831123015 62 207 12.0 18.0 0.00 0.00 0.00 83 1024.1
20260831121515 62 185 12.0 20.0 0.00 0.00 0.00 83 1024.2
20260831114515 61 178 11.0 22.0 0.00 0.00 0.00 84 1023.9
20260831113015 61 171 12.0 24.0 0.00 0.00 0.00 81 1023.9
20260831111515 61 187 11.0 22.0 0.00 0.00 0.00 79 1023.7
20260831110016 61 189 7.0 16.0 0.00 0.00 0.00 81 1023.7
20260831104514 61 199 9.0 17.0 0.00 0.00 0.00 81 1023.7
20260831103014 61 187 9.0 20.0 0.00 0.00 0.00 83 1023.6
20260831101514 60 193 11.0 16.0 0.00 0.00 0.00 85 1023.7
20260831100015 60 198 10.0 16.0 0.00 0.00 0.00 82 1023.6
20260831094514 60 196 10.0 17.0 0.00 0.00 0.00 84 1023.7
20260831091514 60 197 8.0 14.0 0.00 0.00 0.00 86 1023.9
20260831090014 60 188 8.0 15.0 0.00 0.00 0.00 86 1023.6
20260831084514 60 200 5.0 10.0 0.00 0.00 0.00 84 1023.5
20260831083013 59 204 6.0 12.0 0.00 0.00 0.00 85 1023.5